Regional Weather Roundup
Issued by NWS

Home | Current Version | Previous Version | Text Only | Print | Product List | Glossary Off
Versions: 1 2 3 4 5 6 7 8 9 10 11 12 13 14 15 16 17 18 19 20 21 22 23 24 25 26 27 28 29 30 31 32 33 34 35 36 37 38 39 40 41 42 43 44 45 46 47 48 49 50

000
ASUS43 KLOT 290308
RWRIL

ILLINOIS REGIONAL WEATHER ROUNDUP
NATIONAL WEATHER SERVICE CHICAGO/ROMEOVILLE IL
1000 PM CDT TUE MAR 28 2017

NOTE: "FAIR" INDICATES FEW OR NO CLOUDS BELOW 12,000 FEET WITH NO
SIGNIFICANT WEATHER AND/OR OBSTRUCTIONS TO VISIBILITY.

* THESE STATIONS ARE NOT UNDER NWS QUALITY CONTROL. THEY ALSO MAY NOT
  REPORT WEATHER SUCH AS PRECIPITATION OR FOG.

ILZ001-002-007-009-015-016-024-290400-
NORTHWEST ILLINOIS

CITY           SKY/WX    TMP DP  RH WIND       PRES   REMARKS
MOLINE         PTCLDY    40  36  86 CALM      30.17S
STERLING*      CLEAR     40  39  97 CALM      30.19S
SAVANNA*       CLEAR     39  38  97 CALM      30.19S
$$

ILZ003-004-008-010-011-017-018-290400-
NORTH CENTRAL ILLINOIS

CITY           SKY/WX    TMP DP  RH WIND       PRES   REMARKS
ROCKFORD       CLEAR     42  35  76 NE5       30.22R
FREEPORT*      CLEAR     40  37  88 E3        30.21S
ROCHELLE*      CLEAR     38  36  93 E6        30.20S WCI  33
DE KALB*       CLEAR     38  35  89 E6        30.21R WCI  33
PERU*          CLEAR     43  37  78 E9        30.19R
$$

ILZ005-006-012>014-019>023-290400-
NORTHEAST ILLINOIS

CITY           SKY/WX    TMP DP  RH WIND       PRES   REMARKS
CHICAGO-OHARE  CLOUDY    40  35  83 NE9       30.21R
CHICAGO-MIDWAY CLOUDY    43  38  82 VRB7      30.22R
AURORA         CLOUDY    40  36  86 CALM      30.21R
LANSING*       CLOUDY    39  39  98 NE6       30.22R WCI  35
JOLIET*        CLOUDY    44  39  83 E10       30.21S
WAUKEGAN       FOG       35  35 100 NE6       30.23R VSB 1/4 WCI  30
DUPAGE AIRPORT CLOUDY    42  39  89 E9        30.20S
KANKAKEE*      CLOUDY    41  38  89 NE6       30.20F
WHEELING       CLOUDY    37  36  96 NE7       30.24R WCI  32
MORRIS*        CLOUDY    43  38  83 E9        30.20R
ROMEOVILLE*    CLOUDY    43  40  90 E8        30.21S
NORTHERLY ISL    N/A     37  36  96 N9          N/A  WCI  30
$$

LMZ740>746-290400-
SOUTHERN LAKE MICHIGAN

STATION/POSITION SKY/WX   TEMP    WIND        PRES    VSBY  WAVE
                          AIR SEA DIR/SP/G                  HT/PER
                          (F)     (DEG/KT/KT) (MB)    (MI)  (FT/S)
HARRISON CRIB              38     360/  8/  9   N/A
BURNHAM HARBOR             37     350/  9/ 11   N/A
CALUMET HARBOR             37     350/  7/  9 1022.9R
BURNS HARBOR               39      50/  7/  8 1023.4R
MICHIGAN CITY              38      30/  9/ 10   N/A
$$

ILZ025>027-034>036-040-047-049-050-058-095>099-290400-
WEST-CENTRAL ILLINOIS

CITY           SKY/WX    TMP DP  RH WIND       PRES   REMARKS
QUINCY         CLOUDY    51  47  86 E13       30.12S
GALESBURG*     MOCLDY    44  40  86 NE7       30.17S
MACOMB*        CLOUDY    47  44  88 NE13      30.18F
JACKSONVILLE*  CLOUDY    51  46  84 NE8       30.14S
PITTSFIELD*    CLOUDY    52  47  83 E7        30.14S
$$

ILZ028>032-037-038-041>044-048-051>054-059>061-290400-
CENTRAL ILLINOIS

CITY           SKY/WX    TMP DP  RH WIND       PRES   REMARKS
PONTIAC        CLOUDY    41  40  97 E8        30.20R
BLOOMINGTON    CLOUDY    42  39  89 E6        30.19R
DECATUR        CLOUDY    48  41  76 E14       30.16R
PEORIA         CLOUDY    47  40  76 NE7       30.18R
LACON*         CLOUDY    42  39  88 CALM      30.18R
LINCOLN*       CLOUDY    48  44  87 NE9       30.17S
SPRINGFIELD    CLOUDY    50  44  80 NE13      30.15S
TAYLORVILLE    CLOUDY    50  45  81 NE10      30.15R
$$

ILZ033-039-045-046-055>057-062-063-290400-
EAST-CENTRAL ILLINOIS

CITY           SKY/WX    TMP DP  RH WIND       PRES   REMARKS
CHAMPAIGN      CLOUDY    46  39  76 NE12      30.16R
RANTOUL*       CLOUDY    45  41  85 NE9       30.17S
MATTOON        CLOUDY    49  43  80 NE12      30.14R
PARIS*         CLOUDY    47  43  84 N7        30.15S
$$

ILZ079-100>102-290400-
SOUTHWEST ILLINOIS

CITY           SKY/WX    TMP DP  RH WIND       PRES   REMARKS
ALTON          CLOUDY    52  46  82 NE6       30.12R
BELLEVILLE     CLOUDY    56  50  81 NE6       30.09R
CAHOKIA*       CLOUDY    56  47  71 NE9       30.10R
SPARTA*        CLOUDY    54  49  83 CALM      30.10S
$$

ILZ064>066-069>071-074>076-080>082-084>086-088>090-092>094-290400-
SOUTH-CENTRAL ILLINOIS

CITY           SKY/WX    TMP DP  RH WIND       PRES   REMARKS
CARBONDALE     CLOUDY    54  50  86 N3        30.08S
CAIRO*         PTCLDY    56  51  82 NE7       30.06S
EFFINGHAM*     CLOUDY    54  47  79 NE6       30.14R HAZE
MARION         CLOUDY    57  52  82 CALM      30.09S
MT. VERNON     CLOUDY    57  49  74 NE9       30.10R
CENTRALIA*     CLOUDY    56  49  77 NE6       30.10R
SALEM*         CLOUDY    56  47  72 NE6       30.11R
METROPOLIS*    MOCLDY    57  52  82 N6        30.07F
$$

ILZ067-068-072-073-078-083-087-091-290400-
SOUTHEAST ILLINOIS

CITY           SKY/WX    TMP DP  RH WIND       PRES   REMARKS
LAWRENCEVILLE  MOCLDY    55  49  80 NE9       30.11R
FLORA*         MOCLDY    56  48  73 NE6       30.11R
FAIRFIELD*     CLOUDY    55  49  80 N5        30.10R
HARRISBURG*    MOCLDY    55  53  91 CALM      30.09R
ROBINSON*      MOCLDY    52  47  84 NE5       30.13R
CARMI*         MOCLDY    53  51  92 CALM      30.09R
$$

ABBREVIATIONS USED IN REMARKS
   TC - TEMPERATURE IN CELSIUS
  WCI - WIND CHILL INDEX
   HX - HEAT INDEX
  VSB - VISIBILITY
$$





USA.gov is the U.S. government's official web portal to all federal, state and local government web resources and services.